Starlink 3782

operational
NORAD ID: 52273 Int'l Des: 2022-041 Owner: SPXS Country: US Constellation: starlink
LEOCIRCULAR

About Starlink 3782

Description loading...

Live Position

Loading 3D Globe...

Upcoming Passes

Altitude History

Altitude vs Time

uPlot chart will show altitude changes over time

Two-Line Element Set

1 52273U 22041N 25296.53802962 .00002900 00000-0 20018-3 0 9992
2 52273 53.2186 355.2030 0001421 86.9187 273.1968 15.08847814193792
Epoch: Oct 23, 2025 • Age: 13 hours

Current Status

Altitude 545.3 km
Velocity 7.60 km/s
Sub-Earth Point 53.32°N, 16.25°E
Launch Date Apr 21, 2022
Age 3.5 years
Type internet

Technical Details

Classification Payload
Mass 297.00 kg
Dry Mass 275.00 kg
Total Mass 297.00 kg
Length 0.20 m
Diameter 2.80 m
Span 9.00 m
Shape Box + pan
Manufacturer SPXS
Bus Type Starlink
Phase Status In Orbit
Owner/State SPXS/US

Large Constellations

Loading constellations...